Location: Lahitte
(43.6596°N, 0.6805°E)
Time: 07:54:00
(UTC+00:00)

Cosmos 2098 Rocket - Pass Details

Date: 15 May 2026
Orbit: 346 x 838 km, 82.9° (Epoch: 6 June)

Event Time Altitude Azimuth Distance (km) Brightness Sun altitude
Exits shadow 20:51:45 24° 137° (SE) 1,396 4.2 -14.7°
Maximum altitude 20:53:46 35° 92° (E) 1,057 3.9 -15.0°
Drops below altitude 10° 20:57:38 10° 27° (NNE) 1,916 5.8 -15.5°
Sets 20:59:48 0° 18° (NNE) 2,734 6.8 -15.7°
